AirNav   Air Wisconsin Up To $57,000 Bonus
 
 1649 users online  

KJRA West 30th St Heliport
New York, New York, USA

GOING TO NEW YORK?


FAA INFORMATION EFFECTIVE 07 OCTOBER 2021

Location

FAA Identifier: JRA
Lat/Long: 40-45-16.3650N 074-00-25.5020W
40-45.272750N 074-00.425033W
40.7545458,-74.0070839
(estimated)
Elevation: 7 ft. / 2 m (estimated)
Variation: 13W (1985)
From city: LCTD IN MANHATTAN.
Time zone: UTC -4 (UTC -5 during Standard Time)
Zip code: 10001

Heliport Operations

Heliport use: Open to the public
Control tower: no
ARTCC: NEW YORK CENTER
FSS: NEW YORK FLIGHT SERVICE STATION
NOTAMs facility: ISP (NOTAM-D service available)
Attendance: CONTINUOUS
Wind indicator: lighted
Segmented circle: no
Lights: SS-SR
Landing fee: yes

Heliport Communications

CTAF/UNICOM: 123.05
NEW YORK APPROACH: 127.85 126.05
NEW YORK DEPARTURE: 127.85 126.05
WX AWOS-3PT at JRB (3 nm S): 128.175 (212-425-1534)
WX ASOS at TEB (6 nm NW): PHONE 201-393-0855
WX ASOS at LGA (6 nm E): PHONE 718-672-6317
WX ASOS at EWR (8 nm SW): PHONE 973-621-2892
WX ASOS at JFK (12 nm SE): 128.725 (718-656-0956)
WX AWOS-3 at LDJ (14 nm SW): 124.025 (908-862-7383)
WX ASOS at CDW (14 nm NW): 135.5 (973-575-4417)
WX AWOS-3 at MMU (19 nm W): PHONE 973-290-0135

Nearby radio navigation aids

VOR radial/distance  VOR name  Freq  Var
TEBr167/6.2TETERBORO VOR/DME108.4011W
LGAr266/6.5LA GUARDIA VOR/DME113.1012W
CRIr340/9.9CANARSIE VOR/DME112.3011W
JFKr316/13.0KENNEDY VOR/DME115.9012W
COLr026/27.5COLTS NECK VOR/DME115.4011W
SAXr139/30.5SPARTA VORTAC115.7011W
DPKr278/32.0DEER PARK VOR/DME117.7012W
SBJr083/35.0SOLBERG VOR/DME112.9010W
CMKr223/37.0CARMEL VOR/DME116.6012W
BWZr105/37.1BROADWAY VOR/DME114.2011W
RBVr044/39.9ROBBINSVILLE VORTAC113.8010W

 
NDB name  Hdg/Dist  Freq  Var  ID
TORBY130/6.421412WTE - .
CHATHAM101/19.225413WCAT -.-. .- -

Heliport Services

Fuel available: A
Parking: tiedowns
Airframe service: NONE
Powerplant service: NONE
Bottled oxygen: NONE
Bulk oxygen: NONE

Runway Information

Helipad H1

Dimensions: 64 x 64 ft. / 20 x 20 m
RYS H1, H2, & H3 REMEASURED.
Surface: asphalt
Weight bearing capacity: 
Single wheel: 6.0
Runway edge lights: PERI
Operational restrictions: ALL HELIPADS, RY H1-H11 CIRCULAR.
Traffic pattern: rightleft
Runway end identifier lights: no

Helipad H10

Dimensions: 44 x 44 ft. / 13 x 13 m
Surface: asphalt
Operational restrictions: RY H10 MKD AS H-C.
Traffic pattern: leftleft

Helipad H11

Dimensions: 44 x 44 ft. / 13 x 13 m
Surface: asphalt
Operational restrictions: RY H11 MKD AS H-D.
Traffic pattern: leftleft

Helipad H2

Dimensions: 44 x 44 ft. / 13 x 13 m
Surface: asphalt
Weight bearing capacity: 
Single wheel: 6.0
Traffic pattern: rightleft

Helipad H3

Dimensions: 44 x 44 ft. / 13 x 13 m
Surface: asphalt, in good condition
Traffic pattern: leftleft

Helipad H4

Dimensions: 44 x 44 ft. / 13 x 13 m
Surface: asphalt
Traffic pattern: leftleft

Helipad H5

Dimensions: 44 x 44 ft. / 13 x 13 m
Surface: asphalt
Traffic pattern: leftleft

Helipad H6

Dimensions: 44 x 44 ft. / 13 x 13 m
Surface: asphalt
Traffic pattern: leftleft

Helipad H8

Dimensions: 44 x 44 ft. / 13 x 13 m
Surface: asphalt
Operational restrictions: RY H8 MARKED AS H-A.
Traffic pattern: leftleft

Helipad H9

Dimensions: 44 x 44 ft. / 13 x 13 m
Surface: asphalt
Operational restrictions: RY H9 MKD AS H-B.
Traffic pattern: leftleft

Heliport Ownership and Management from official FAA records

Ownership: Publicly-owned
Owner: HUDSON RIVER PARK TRUST
PIER 40 WEST HOUSTON STREET
NEW YORK, NY 10007
Phone 212-627-2020
Manager: BRIAN TOLBERT
WEST 30 ST & 12 AVE.
NEW YORK, NY 10001
Phone 212-563-4442

Heliport Operational Statistics

Aircraft operations: avg 40/day *
85% air taxi
14% transient general aviation
<1% military
* for 12-month period ending 07 September 2017

Additional Remarks

FIRE ALARM BOX TO NEARBY FIREHOUSE LCTD AT FAC.
PARKING AVAILABLE.
H3 NO INGRESS/EGRESS OVER 12TH AVENUE.
ALL TKOFS & LDGS MADE ONLY OVER HUDSON RIVER.
NORTH & SOUTH FINGER PIER PADS ARE CLOSED.
+40 FT LIGHTS LOCATED AT SOUTH END OF HELIPORT.
+10 FT FENCING LOCATED ALONG EAST EDGE OF HELIPORT AND BETWEEN LANDING SPOTS 2 AND 3.
FOR CD CTC NEW YORK APCH AT 516-683-2849.

Instrument Procedures

NOTE: All procedures below are presented as PDF files. If you need a reader for these files, you should download the free Adobe Reader.

NOT FOR NAVIGATION. Please procure official charts for flight.
FAA instrument procedures published for use from 07 October 2021 at 0901Z to 04 November 2021 at 0900z.

 
IAPs - Instrument Approach Procedures
COPTER RNAV (GPS) 210   download (312KB)
NOTE: Special Take-Off Minimums/Departure Procedures apply   download (442KB)

Other nearby airports with instrument procedures:

6N5 - East 34th Street Heliport (2 nm SE)
KJRB - Downtown Manhattan/Wall Street Heliport (3 nm S)
KTEB - Teterboro Airport (6 nm NW)
KLGA - LaGuardia Airport (6 nm E)
KEWR - Newark Liberty International Airport (8 nm SW)
KJFK - John F Kennedy International Airport (12 nm SE)
KLDJ - Linden Airport (14 nm SW)
KCDW - Essex County Airport (14 nm NW)
N07 - Lincoln Park Airport (18 nm NW)
KMMU - Morristown Municipal Airport (19 nm W)
 
Loc | Ops | Rwys | IFR | FBO | Links
Com | Nav | Svcs | Stats | Notes
Area around KJRA (West 30th St Heliport)
 
Road maps at: MapQuest Bing Google
 
Aerial photo
WARNING: Photo may not be current or correct
Aerial photo of KJRA (West 30th St Heliport)
Do you have a better or more recent aerial photo of West 30th St Heliport that you would like to share? If so, please send us your photo.

 
Sectional chart

 
Airport distance calculator
Flying to West 30th St Heliport? Find the distance to fly.

From to KJRA

Sunrise and sunset
Times for 18-Oct-2021
 Local
(UTC-4)
 Zulu
(UTC)
Morning civil twilight06:4410:44
Sunrise07:1111:11
Sunset18:1122:11
Evening civil twilight18:3922:39

Current date and time
Zulu (UTC)  18-Oct-2021 18:25:19
Local (UTC-4)  18-Oct-2021 14:25:19
 
METAR
KNYC 
3nm NE 
181751Z AUTO 29007KT 10SM OVC060 14/03 A2984 RMK AO2 SLP097 T01390033 10144 20100 56008
KJRB 
3nm S 
181756Z AUTO VRB06KT 10SM BKN055 OVC065 16/06 A2983 RMK AO2 SLP100 T01610061 10172 20117 56007
KLGA 
6nm E 
181751Z 33016G22KT 10SM FEW044 SCT050 BKN065 BKN160 16/04 A2981 RMK AO2 PK WND 32027/1654 RAB32E42 SLP092 P0000 60000 T01610039 10167 20117 56009
KTEB 
7nm N 
181751Z 30015G21KT 10SM FEW050 OVC060 14/03 A2981 RMK AO2 SLP095 T01390033 10150 20083 56006
KEWR 
8nm SW 
181751Z 29018G27KT 10SM FEW045 BKN060 BKN100 16/02 A2983 RMK AO2 PK WND 29033/1652 SLP099 VIRGA T01610022 10178 20100 58007
KJFK 
13nm SE 
181751Z 30023G29KT 10SM BKN055 BKN090 16/03 A2981 RMK AO2 PK WND 30030/1656 SLP095 VCSH N T01610028 10167 20106 58011
KLDJ 
14nm SW 
181755Z AUTO 32014G24KT 10SM SCT050 SCT060 16/02 A2983 RMK AO2 T01630021 10165 20090
KCDW 
15nm NW 
181753Z 31011G19KT 10SM SCT055 BKN065 16/03 A2982 RMK AO2 PK WND 31026/1721 SLP104 T01560028 10161 20089 58011
KMMU 
19nm W 
181745Z 31008G19KT 10SM BKN050 BKN070 14/04 A2985
TAF
KLGA 
6nm E 
181724Z 1818/1924 31020G29KT P6SM BKN050 FM190000 31015G23KT P6SM SCT050 FM190500 30012KT P6SM BKN040 FM191400 28015G22KT P6SM SKC
KTEB 
7nm N 
181724Z 1818/1924 31016G25KT P6SM BKN050 FM190000 31011G18KT P6SM SCT050 FM190200 30007KT P6SM BKN040 FM191400 28013G20KT P6SM SKC
KEWR 
8nm SW 
181724Z 1818/1924 30019G28KT P6SM BKN050 FM190000 30013G21KT P6SM SCT050 FM190400 29010KT P6SM BKN040 FM191400 27015G22KT P6SM SKC
KJFK 
13nm SE 
181724Z 1818/1924 31020G29KT P6SM BKN050 FM190000 31015G23KT P6SM SCT050 FM190500 30012KT P6SM BKN040 FM191400 28016G23KT P6SM SKC
NOTAMs
Click for the latest NOTAMs
NOTAMs are issued by the DoD/FAA and will open in a separate window not controlled by AirNav.

 

 
 

FBO, Fuel Providers, and Aircraft Ground Support

  
 Business Name 
 
 Contact 
 
 Services / Description 
 
Fuel Prices
 
Comments
  
Air Pegasus 212-563-4442
no information available

If you are affiliated with Air Pegasus and would like to show here your services, contact info, web link, logo, and more, click here
Jet A
FS $8.15 
 Updated 28-Mar-2019
 
   write
FS=Full service
Update Fuel Prices
 

Would you like to see your business listed on this page?

 If your business provides an interesting product or service to pilots, flight crews, aircraft, or users of the West 30th St Heliport, you should consider listing it here.  To start the listing process, click on the button below
 
Add a business
 

Other Pages about West 30th St Heliport

www.panynj.gov/...
 
Update a link
 
Copyright © AirNav, LLC. All rights reserved. Privacy Policy  Contact